This is the latest recevied weather packets stored in our database for station/object S50ME-11. If no packets are shown the sender has not sent any weather packets the latest 10 day(s).
| Time | Temp. | Humidity | Pressure | Rain* | Wind** | Luminosity | Snow |
|---|---|---|---|---|---|---|---|
| 1777719647 | 31.11° C | 35% | 1025 hPa | - | - | - | - |
| 1777718750 | 31.11° C | 35% | 1025.2 hPa | - | - | - | - |
| 1777718747 | 31.11° C | 35% | 1025.2 hPa | - | - | - | - |
| 1777717849 | 31.67° C | 35% | 1024.3 hPa | - | - | - | - |
| 1777717846 | 31.67° C | 35% | 1024.3 hPa | - | - | - | - |
| 1777716949 | 31.11° C | 35% | 1024.8 hPa | - | - | - | - |
| 1777716946 | 31.11° C | 35% | 1024.8 hPa | - | - | - | - |
| 1777716049 | 31.67° C | 35% | 1025 hPa | - | - | - | - |
| 1777716046 | 31.67° C | 35% | 1025 hPa | - | - | - | - |
| 1777715145 | 31.67° C | 35% | 1025.3 hPa | - | - | - | - |
| 1777714248 | 31.11° C | 35% | 1025.5 hPa | - | - | - | - |
| 1777714245 | 31.11° C | 35% | 1025.5 hPa | - | - | - | - |
| 1777713543 | 31.11° C | 35% | 1025 hPa | - | - | - | - |
| 1777713347 | 31.11° C | 35% | 1025 hPa | - | - | - | - |
| 1777713343 | 31.11° C | 35% | 1025 hPa | - | - | - | - |
| 1777712446 | 30.56° C | 35% | 1025 hPa | - | - | - | - |
| 1777712443 | 30.56° C | 35% | 1025 hPa | - | - | - | - |
| 1777711546 | 30° C | 35% | 1026.5 hPa | - | - | - | - |
| 1777711543 | 30° C | 35% | 1026.5 hPa | - | - | - | - |
| 1777710646 | 29.44° C | 36% | 1026.6 hPa | - | - | - | - |
| 1777710643 | 29.44° C | 36% | 1026.6 hPa | - | - | - | - |
| 1777709746 | 27.78° C | 37% | 1026 hPa | - | - | - | - |
| 1777709742 | 27.78° C | 37% | 1026 hPa | - | - | - | - |
| 1777708845 | 26.67° C | 38% | 1027 hPa | - | - | - | - |
| 1777708842 | 26.67° C | 38% | 1027 hPa | - | - | - | - |
* Rain since midnight (hover to see other rain measurements)
** Current wind speed in m/s (hover to see current wind gust speed)